Regional Weather Roundup
Issued by NWS Grand Forks, ND

Home | Current Version | Previous Version | Text Only | Print | Product List | Glossary On
Versions: 1 2 3 4 5 6 7 8 9 10 11 12 13 14 15 16 17 18 19 20 21 22 23 24 25 26 27 28 29 30 31 32 33 34 35 36 37 38 39 40 41 42 43 44 45 46 47 48 49 50
000
ASUS43 KFGF 301431
RWRFGF
PRAIRIE TO PINES  WEATHER ROUNDUP
NATIONAL WEATHER SERVICE EASTERN NORTH DAKOTA/GRAND FORKS ND
900 AM CDT TUE SEP 30 2014

 **SATELLITE DATA USED TO AUGMENT SKY COVER AT AUTOMATED STATIONS**
 *****  WEATHER ACROSS EASTERN NORTH DAKOTA  *****

CITY           SKY/WX    TMP DP  RH WIND       PRES   REMARKS
GRAND FORKS    CLOUDY    45  42  89 SE13      29.94F
GRAND FRKS AFB CLOUDY    43  43  99 SE10      29.93F
GRAND FRKS NWS   N/A     43 N/A N/A SE21        N/A
DEVILS LAKE    CLOUDY    46  39  76 SE18      29.82F
FARGO          CLOUDY    47  42  83 SE14      29.92F
WAHPETON ARPT  CLOUDY    45  39  81 SE15G22   29.93F
$$

 ***** WEATHER ACROSS CENTRAL AND WESTERN NORTH DAKOTA  *****

CITY           SKY/WX    TMP DP  RH WIND       PRES   REMARKS
BISMARCK       CLOUDY    54  50  86 E15       29.72F
MINOT          CLOUDY    49  48  97 E14       29.76S FOG
JAMESTOWN      CLOUDY    46  44  93 E16G24    29.79F
MINOT AFB      DRIZZLE   49  49 100 SE13      29.76S FOG
GARRISON         N/A     53  51  93 SE13      29.73F
WILLISTON      LGT RAIN  53  51  93 E3        29.69F
DICKINSON      RAIN      51  51 100 E12       29.63F FOG
HETTINGER      LGT RAIN  53  51  93 E14       29.61F FOG
$$

 *****  OTHER AIRPORT OBSERVATIONS IN OUR AREA  *****

CITY           SKY/WX    TMP DP  RH WIND       PRES   REMARKS
WALHALLA       CLOUDY    43  43 100 SE18      29.92F
GRAFTON AIRPOR CLOUDY    43  43 100 SE16      29.94F
VALLEY CITY AR CLOUDY    45  45 100 SE15G23   29.85F
CANDO          CLOUDY    46  45  93 SE18G24   29.83F
CAVALIER APRT  CLOUDY    43  41  93 SE9G18    29.93F
GWINNER        CLOUDY    48  46  93 SE24      29.85F
ROLLA          CLOUDY    45  45 100 SE16      29.85R
 ***** THE ABOVE OBSERVATIONS ARE NON NWS ARE NOT QUALITY
       CONTROLLED AND MAY MIS-REPORT RAIN FOR SNOW...
$$

  *****  WEATHER ACROSS NORTHERN MINNESOTA  *****

CITY           SKY/WX    TMP DP  RH WIND       PRES   REMARKS
FLAG ISLAND    CLOUDY    45  41  87 SE12G20   30.03S
WARROAD        CLOUDY    45  41  87 E13       30.02F
ROSEAU         CLOUDY    45  41  87 SE14      30.01F
HALLOCK        CLOUDY    46  43  87 SE15      29.95F
THF RVR FALLS  CLOUDY    45  41  87 SE15      29.97F
BAUDETTE       CLOUDY    44  40  85 SE8       30.04S
WASKISH        CLOUDY    43  41  93 E10G18    30.04F
CROOKSTON      SUNNY     46  43  87 SE15      29.95F
STEPHEN NDAWN    N/A     45  45 100 SE13        N/A
GREENBUSH NDAW   N/A     46  45  93 SE13        N/A
$$
  *****  WEATHER ACROSS CENTRAL AND WEST MINNESOTA  *****

CITY           SKY/WX    TMP DP  RH WIND       PRES   REMARKS
FOSSTON        CLOUDY    43  41  93 SE9       29.97F
BEMIDJI        CLOUDY    43  40  91 SE14G20   30.02F
PARK RAPIDS    CLOUDY    41  39  93 E13       30.02F
ELBOW LAKE     CLOUDY    42  40  93 E16G23    29.95S
WADENA         CLOUDY    39  37  93 E13       29.99F FOG
DETROIT LAKES  CLOUDY    43  41  93 SE14      29.95F
MOORHEAD       NOT AVBL
FERGUS FALLS   CLOUDY    45  41  87 SE12      29.95S
MORRIS MN      PTSUNNY   45  43  93 SE15G24   29.93F
STAPLES        CLOUDY    39  39 100 E10       30.01F
$$
  *****  WEATHER ELSEWHERE ACROSS MINNESOTA  *****

CITY           SKY/WX    TMP DP  RH WIND       PRES   REMARKS
DULUTH         CLOUDY    43  39  86 E13       30.10F
INTRNTL FALLS  CLOUDY    41  39  93 SE8       30.09S
ELY            CLOUDY    39  36  87 SE9       30.13S
CLOQUET        CLOUDY    43  39  87 E10G16    30.09F
WHEATON        CLOUDY    45  41  87 E22       29.92F
BRAINERD       CLOUDY    42  40  92 E8        30.06S
HIBBING        CLOUDY    42  39  89 SE8       30.10F
ALEXANDRIA     CLOUDY    42  40  92 SE16G24   29.98S
SAINT CLOUD    CLOUDY    44  39  82 E10       30.04F
MINNEAPOLIS    CLOUDY    43  38  82 E10G21    30.07S
$$

  *****  WEATHER ACROSS SOUTH DAKOTA  *****

CITY           SKY/WX    TMP DP  RH WIND       PRES   REMARKS
SIOUX FALLS    CLOUDY    54  51  90 SE18      29.84F
BROOKINGS      NOT AVBL
WATERTOWN      CLOUDY    48  45  89 E16G25    29.82F
HURON          LGT RAIN  55  52  89 SE17G24   29.72F FOG
SISSETON         N/A     46  43  89 SE16G24   29.89F
ABERDEEN       CLOUDY    53  49  86 E15       29.75F
MITCHELL       LGT RAIN  57  55  93 SE16G26   29.74F FOG
PIERRE         CLOUDY    59  57  93 E24G33    29.54F
MOBRIDGE       CLOUDY    55  52  89 E23G30    29.61F
RAPID CITY     LGT RAIN  53  50  89 NE14      29.43F
$$

  *****  SOME WEATHER IN NEARBY STATES *****

CITY           SKY/WX    TMP DP  RH WIND       PRES   REMARKS
GLASGOW MT     CLOUDY    52  49  89 SE10      29.64S
GREAT FALLS MT CLOUDY    53  45  74 SW12      29.68S
CHEYENNE WY    PTSUNNY   51  34  52 W23G31    29.85R
SCOTTSBLUFF NE CLOUDY    56  44  64 W20G35    29.69R
OMAHA NE       CLOUDY    66  58  75 SE7       29.88S
DES MOINES IA  CLOUDY    59  56  89 E8        29.97S FOG
DAVENPORT IA   NOT AVBL
CHICAGO IL     DRIZZLE   48  45  89 N12       30.06S FOG
EAU CLAIRE WI  CLOUDY    42  37  82 SE6       30.10S
LA CROSSE WI   CLOUDY    47  41  80 SE8       30.10R
$$

  *****  SOME NATIONAL WEATHER *****

CITY           SKY/WX    TMP DP  RH WIND       PRES   REMARKS
LA GUARDIA NY  CLOUDY    68  62  81 NE8       29.96F
RALEIGH NC     CLOUDY    64  61  88 CALM      29.95F FOG
ATLANTA GA     MOSUNNY   71  63  75 NE7       29.99R
NEW ORLEANS LA MOSUNNY   80  72  76 NE8       29.90R
OKLAHOMA CITY  PTSUNNY   70  60  70 S10       29.91F
ALBUQUERQUE NM SUNNY     50  37  61 CALM      30.06S
SALT LAKE CITY MOCLDY    53  49  86 S6        29.97R
LOS ANGELES CA PTCLDY    63  57  81 CALM      29.86S
BOISE ID       CLOUDY    54  52  94 W5        29.95R FOG
SEATTLE WA     CLOUDY    55  50  83 SW5       30.05R
$$

*** WEATHER ACROSS MANITOBA...SASKATCHEWAN AND ONTARIO ***
                ***ONTARIO***

CITY           SKY/WX    TMP DP  RH WIND       PRES   REMARKS
GERALDTON      SUNNY     36  36 100 CALM      30.20R
THUNDER BAY    MOSUNNY   39  37  93 S3        30.20
SIOUX LOOKOUT  PTSUNNY   39  37  93 S6        30.13F
TORONTO        CLOUDY    64  61  88 W5        29.89R FOG
BIG TROUT LK   CLOUDY    41  37  87 SW12      30.09S
PICKLE LAKE    DRIZZLE   37  36  93 W3        30.13S FOG
DRYDEN         CLOUDY    39  39 100 SE10      30.09F
KENORA         CLOUDY    43  39  87 SE13      30.05F
$$
                *** MANITOBA***

CITY           SKY/WX    TMP DP  RH WIND       PRES   REMARKS
BRANDON        CLOUDY    46  45  93 SE12G20   29.84F
DAUPHIN        CLOUDY    46  45  93 SE8       29.83F
ISLAND LAKE    CLOUDY    46  41  81 S8        29.99F
PILOT MOUND      N/A     45  43  93 SE15G21     N/A
THE PAS        CLOUDY    45  43  93 SE10      29.76F
THOMPSON       PTSUNNY   41  41 100 S6        29.87F
WINNIPEG       CLOUDY    45  43  93 SE17      29.97F
LYNN LAKE      CLOUDY    41  39  93 SE8       29.72F
CHURCHILL      CLOUDY    39  37  93 SE14      29.97S
GILLAM         CLOUDY    43  41  93 S6        29.93F
$$
                ***SASKATCHEWAN***

CITY           SKY/WX    TMP DP  RH WIND       PRES   REMARKS
ESTEVAN        LGT RAIN  50  50 100 SE13      29.73F FOG
KINDERSLEY     MOCLDY    46  46 100 S5        29.53S
LLOYDMINSTER   LGT RAIN  48  46  93 SW3       29.54S
PRINCE ALBERT  LGT RAIN  50  48  93 S6        29.62F
REGINA         DRIZZLE   50  50 100 SE15      29.67F FOG
YORKTON        LGT RAIN  48  46  93 SE14      29.73F FOG
N. BATTLEFORD  LGT RAIN  48  48 100 SE7       29.57F FOG
LA RONGE       CLOUDY    48  45  87 S9        29.63F
SASKATOON      DRIZZLE   52  48  87 S12G18    29.59F
SWIFT CURRENT  PTCLDY    50  48  93 S17G24    29.54F
$$
NOTE: THESE ARE AUTOMATED STATIONS WITH LIMITED QUALITY CONTROL
      "FAIR" INDICATES FEW OR NO CLOUDS BELOW 12,000 FEET WITH NO
      SIGNIFICANT WEATHER AND/OR OBSTRUCTIONS TO VISIBILITY.
      SKY/WX - SKY CONDITION AND SIGNIFICANT WEATHER.
      TMP - AIR TEMPERATURE.    DP   - DEWPOINT TEMPERATURE.
      RH  - RELATIVE HUMIDITY.  PRES - PRESSURE.
      HX  - HEAT INDEX.         WCI  - WIND CHILL INDEX.
$



USA.gov is the U.S. government's official web portal to all federal, state and local government web resources and services.